Regional Weather Roundup
Issued by NWS

Home | Current Version | Previous Version | Graphics & Text | Print | Product List | Glossary On
Versions: 1 2 3 4 5 6 7 8 9 10 11 12 13 14 15 16 17 18 19 20 21 22 23 24 25 26 27 28 29 30 31 32 33 34 35 36 37 38 39 40 41 42 43 44 45 46 47 48 49 50
000
ASUS43 KLOT 232222
RWRIL

ILLINOIS REGIONAL WEATHER ROUNDUP
NATIONAL WEATHER SERVICE CHICAGO/ROMEOVILLE IL
500 PM CDT SAT MAY 23 2015

NOTE: "FAIR" INDICATES FEW OR NO CLOUDS BELOW 12,000 FEET WITH NO
SIGNIFICANT WEATHER AND/OR OBSTRUCTIONS TO VISIBILITY.

* THESE STATIONS ARE NOT UNDER NWS QUALITY CONTROL. THEY ALSO MAY NOT
  REPORT WEATHER SUCH AS PRECIPITATION OR FOG.

ILZ001-002-007-009-015-016-024-232300-
NORTHWEST ILLINOIS

CITY           SKY/WX    TMP DP  RH WIND       PRES   REMARKS
MOLINE         PTSUNNY   78  48  34 S8G17     30.17F
STERLING*      MOSUNNY   81  45  28 SW5       30.19S
SAVANNA*       MOSUNNY   81  42  25 SW9       30.19F
$$

ILZ003-004-008-010-011-017-018-232300-
NORTH CENTRAL ILLINOIS

CITY           SKY/WX    TMP DP  RH WIND       PRES   REMARKS
ROCKFORD       MOSUNNY   80  37  21 SW14      30.21F
FREEPORT*      MOSUNNY   76  43  30 SW7       30.21F
ROCHELLE*      SUNNY     80  40  24 SW3G16    30.20F
DE KALB*       SUNNY     77  42  28 S13       30.21F
PERU*          SUNNY     80  47  31 CALM      30.20F
$$

ILZ005-006-012>014-019>023-232300-
NORTHEAST ILLINOIS

CITY           SKY/WX    TMP DP  RH WIND       PRES   REMARKS
CHICAGO-OHARE  MOSUNNY   80  40  23 SW10G17   30.20F
CHICAGO-MIDWAY PTSUNNY   82  38  20 W9G17     30.21F HX  80
AURORA         SUNNY     82  38  20 S12       30.20F HX  80
LANSING*       MOSUNNY   79  41  26 S9        30.22F
JOLIET*        SUNNY     82  45  27 S10       30.20F HX  80
WAUKEGAN       SUNNY     69  42  37 E9        30.22F
DUPAGE AIRPORT MOSUNNY   80  41  24 SE7       30.20F
KANKAKEE*      SUNNY     80  48  32 SE6       30.21F
WHEELING       SUNNY     80  40  23 SW12      30.22F
MORRIS*        SUNNY     81  42  24 SW15      30.19F HX  80
ROMEOVILLE*    MOSUNNY   81  38  21 S13G20    30.21F
NORTHERLY ISL    N/A     64  42  44 NE3         N/A
$$

LMZ740>746-232300-
SOUTHERN LAKE MICHIGAN

STATION/POSITION SKY/WX   TEMP    WIND        PRES    VSBY  WAVE
                          AIR SEA DIR/SP/G                  HT/PER
                          (F)     (DEG/KT/KT) (MB)    (MI)  (FT/S)
SOUTHERN BUOY              51 38   90/  8/  8 1024.9F         0
HARRISON CRIB              65      90/ 18/ 19   N/A
BURNHAM HARBOR             64      10/  4/  5   N/A
CALUMET HARBOR             64      60/ 10/ 12   N/A
BURNS HARBOR               64      80/ 10/ 13 1024.4F
MICHIGAN CITY              60      40/ 14/ 14   N/A
MICHIGAN CITY 6N           57 54   80/  6/  8   N/A           1
ST. JOSEPH                 59 56   60/  6/  8   N/A           1
$$

ILZ025>027-034>036-040-047-049-050-058-095>099-232300-
WEST-CENTRAL ILLINOIS

CITY           SKY/WX    TMP DP  RH WIND       PRES   REMARKS
QUINCY         PTSUNNY   76  49  38 SE15      30.17F
GALESBURG*     PTSUNNY   77  46  33 S6        30.19F
MACOMB*        PTSUNNY   77  44  30 S12       30.20F
JACKSONVILLE*  MOSUNNY   79  48  33 S10       30.19F
PITTSFIELD*    PTSUNNY   78  47  34 S12G20    30.19F
$$

ILZ028>032-037-038-041>044-048-051>054-059>061-232300-
CENTRAL ILLINOIS

CITY           SKY/WX    TMP DP  RH WIND       PRES   REMARKS
PONTIAC        SUNNY     82  46  28 SW8       30.21F HX  80
BLOOMINGTON    MOSUNNY   80  49  33 S14G21    30.23F
DECATUR        SUNNY     78  49  35 S12       30.23F
PEORIA         MOSUNNY   80  48  32 S15       30.20F
LACON*         MOSUNNY   79  47  32 SW12      30.19F
LINCOLN*       SUNNY     80  47  30 S9        30.19F
SPRINGFIELD    SUNNY     80  48  32 S13       30.21F
TAYLORVILLE    SUNNY     75  50  41 SE12      30.22F
$$

ILZ033-039-045-046-055>057-062-063-232300-
EAST-CENTRAL ILLINOIS

CITY           SKY/WX    TMP DP  RH WIND       PRES   REMARKS
CHAMPAIGN      SUNNY     81  43  26 SE13G21   30.23F
DANVILLE*      SUNNY     79  45  29 SE9       30.21F
RANTOUL*       SUNNY     81  42  25 S8        30.23F HX  80
MATTOON        SUNNY     77  49  37 S13       30.23F
PARIS*         SUNNY     79  47  32 SE9       30.25F
$$

ILZ079-100>102-232300-
SOUTHWEST ILLINOIS

CITY           SKY/WX    TMP DP  RH WIND       PRES   REMARKS
ALTON          MOSUNNY   77  50  38 SE14      30.20
BELLEVILLE     PTSUNNY   77  53  44 SE13      30.19F
CAHOKIA*       PTSUNNY   77  49  37 S8        30.19F
SPARTA*        PTSUNNY   75  51  43 SE8       30.22F
$$

ILZ064>066-069>071-074>076-080>082-084>086-088>090-092>094-232300-
SOUTH-CENTRAL ILLINOIS

CITY           SKY/WX    TMP DP  RH WIND       PRES   REMARKS
CARBONDALE     PTSUNNY   78  50  37 SE8       30.21F
CAIRO*         MOSUNNY   79  52  39 SE5       30.21F
EFFINGHAM*     SUNNY     78  43  28 SE9       30.25F
MARION         PTSUNNY   79  52  38 SE9       30.23F
MT. VERNON     PTSUNNY   79  48  34 SE7       30.24S
CENTRALIA*     PTSUNNY   79  46  31 SE9       30.23S
SALEM*         MOSUNNY   79  41  25 SE7G17    30.23F
METROPOLIS*    MOSUNNY   80  52  37 SE5       30.21F HX  80
$$

ILZ067-068-072-073-078-083-087-091-232300-
SOUTHEAST ILLINOIS

CITY           SKY/WX    TMP DP  RH WIND       PRES   REMARKS
LAWRENCEVILLE  SUNNY     79  48  33 S13       30.25F
FLORA*         SUNNY     78  48  34 SE8       30.24F
FAIRFIELD*     MOSUNNY   78  47  34 SE9       30.23S
HARRISBURG*    MOSUNNY   78  49  35 S5        30.24F
ROBINSON*      SUNNY     80  45  29 S8        30.25F
CARMI*         MOSUNNY   81  36  19 SE7       30.24F
$$

ABBREVIATIONS USED IN REMARKS
   TC - TEMPERATURE IN CELSIUS
  WCI - WIND CHILL INDEX
   HX - HEAT INDEX
  VSB - VISIBILITY
$$



USA.gov is the U.S. government's official web portal to all federal, state and local government web resources and services.